This demonstration page uses our WeatherBlox Daily Observations layout. Learn more.

Left ArrowRight Arrow

36.17497, -115.13722

Hourly Observations for April 27, 2016

Temp ( °F °C ) Dew Point ( °F °C ) Humidity (%) Winds ( mph kmh ) Pressure ( in mb ) Visibility ( mi km ) Precip ( " mm )
12:53 am 00:53 Clear 66 18.9 30 -1.1 26 26 Calm 29.81 1010 10 16.0934 0 0
1:53 am 01:53 Clear 64 17.8 25 -3.9 23 23 SW 7 11 29.8 1009 10 16.0934 0 0
2:53 am 02:53 Clear 63 17.2 25 -3.9 24 24 S 5 7 29.79 1009 10 16.0934 0 0
3:53 am 03:53 Clear 62 16.7 25 -3.9 24 24 SSW 7 11 29.79 1009 10 16.0934 0 0
4:53 am 04:53 Clear 61 16.1 25 -3.9 25 25 S 3 6 29.78 1009 10 16.0934 0 0
5:53 am 05:53 Sunny 59 15 27 -2.8 29 29 E 5 7 29.78 1009 10 16.0934 0 0
6:53 am 06:53 Sunny 61 16.1 26 -3.3 26 26 Calm 29.79 1009 10 16.0934 0 0
7:53 am 07:53 Sunny 61 16.1 28 -2.2 29 29 S 7 11 29.79 1009 10 16.0934 0 0
8:53 am 08:53 Sunny 65 18.3 26 -3.3 23 23 S 7 11 29.79 1009 10 16.0934 0 0
9:53 am 09:53 Sunny 67 19.4 24 -4.4 20 20 SSE 9 15 29.78 1009 10 16.0934 0 0
10:53 am 10:53 Sunny 67 19.4 25 -3.9 20 20 S 7 11 29.77 1008 10 16.0934 0 0
11:53 am 11:53 Mostly Sunny 69 20.6 25 -3.9 19 19 ESE 8 13 29.75 1008 10 16.0934 0 0
12:53 pm 12:53 Partly Cloudy 71 21.7 25 -3.9 18 18 SW 10 17 29.72 1006 10 16.0934 0 0
1:53 pm 13:53 Partly Cloudy 71 21.7 26 -3.3 19 19 WSW 7 11 29.7 1006 10 16.0934 0 0
2:53 pm 14:53 Mostly Cloudy 72 22.2 27 -2.8 19 19 N 17 28 29.68 1005 10 16.0934 0 0
3:53 pm 15:53 Sunny 71 21.7 33 0.6 25 25 N 28 44 29.65 1004 10 16.0934 0 0
4:53 pm 16:53 Sunny 69 20.6 34 1.1 27 27 N 16 26 29.64 1004 10 16.0934 0 0
5:53 pm 17:53 Mostly Sunny 68 20 33 0.6 27 27 NNW 16 26 29.62 1003 10 16.0934 0 0
6:53 pm 18:53 Mostly Sunny 67 19.4 31 -0.6 26 26 NNW 13 20 29.62 1003 10 16.0934 0 0
7:53 pm 19:53 Partly Cloudy 66 18.9 33 0.6 29 29 NNW 17 28 29.61 1003 10 16.0934 0 0
8:53 pm 20:53 Partly Cloudy 66 18.9 33 0.6 29 29 NNW 13 20 29.62 1003 10 16.0934 0 0
9:18 pm 21:18 Cloudy with Light Rain 63 17 37 3 39 39 W 25 41 29.59 1002 10 16.0934 0 0
9:53 pm 21:53 Cloudy 59 15 40 4.4 49 49 W 17 28 29.67 1005 10 16.0934 0 0.0254
10:50 pm 22:50 Mostly Cloudy 61 16 37 3 42 42 NW 14 22 29.59 1002 10 16.0934 0 0
10:53 pm 22:53 Mostly Cloudy 60 15.6 38 3.3 44 44 NNW 13 20 29.62 1003 10 16.0934 0 0
11:53 pm 23:53 Clear 58 14.4 39 3.9 50 50 NNW 21 33 29.62 1003 10 16.0934 0 0

Powered by AerisWeather